This demonstration page uses our WeatherBlox Daily Observations layout. Learn more.

Left ArrowRight Arrow

53.62937, 11.41316

Hourly Observations for April 23, 2019

Temp ( °F °C ) Dew Point ( °F °C ) Humidity (%) Winds ( mph kmh ) Pressure ( in mb ) Visibility ( mi km ) Precip ( " mm )
6:50 am 06:50 Mostly Sunny 50 10 39 4 67 67 E 10 17 29.91 1013 7 11 N/A
7:20 am 07:20 Mostly Sunny 50 10 39 4 67 67 E 14 22 29.89 1012 7 11 N/A
7:50 am 07:50 Mostly Sunny 52 11 39 4 62 62 E 13 20 29.89 1012 7 11 N/A
8:20 am 08:20 Mostly Sunny 54 12 37 3 54 54 E 14 22 29.89 1012 7 11 N/A
8:50 am 08:50 Mostly Sunny 54 12 37 3 54 54 E 15 24 29.89 1012 7 11 N/A
9:20 am 09:20 Mostly Sunny 55 13 36 2 47 47 E 16 26 29.88 1012 7 11 N/A
9:50 am 09:50 Mostly Sunny 57 14 36 2 44 44 E 16 26 29.88 1012 7 11 N/A
10:20 am 10:20 Mostly Sunny 59 15 37 3 45 45 E 15 24 29.85 1011 7 11 N/A
10:50 am 10:50 Mostly Sunny 59 15 36 2 42 42 E 16 26 29.85 1011 7 11 N/A
11:20 am 11:20 Mostly Sunny 59 15 36 2 42 42 E 17 28 29.85 1011 7 11 N/A
11:50 am 11:50 Mostly Sunny 61 16 36 2 39 39 E 16 26 29.83 1010 7 11 N/A
12:20 pm 12:20 Mostly Sunny 63 17 36 2 37 37 E 15 24 29.82 1010 7 11 N/A
12:50 pm 12:50 Mostly Sunny 63 17 36 2 37 37 E 17 28 29.80 1009 7 11 N/A
1:20 pm 13:20 Mostly Sunny 64 18 36 2 34 34 E 17 28 29.80 1009 7 11 N/A
1:50 pm 13:50 Mostly Sunny 66 19 37 3 35 35 E 18 30 29.80 1009 7 11 N/A
2:20 pm 14:20 Mostly Sunny 66 19 36 2 32 32 E 17 28 29.80 1009 7 11 N/A
2:50 pm 14:50 Mostly Sunny 66 19 37 3 35 35 E 18 30 29.77 1008 7 11 N/A
3:20 pm 15:20 Mostly Sunny 66 19 37 3 35 35 E 18 30 29.77 1008 7 11 N/A
3:50 pm 15:50 Mostly Sunny 66 19 36 2 32 32 E 18 30 29.77 1008 7 11 N/A
4:20 pm 16:20 Mostly Sunny 68 20 37 3 33 33 E 18 30 29.74 1007 7 11 N/A
4:50 pm 16:50 Mostly Sunny 66 19 37 3 35 35 E 21 33 29.74 1007 7 11 N/A
5:20 pm 17:20 Mostly Sunny 66 19 37 3 35 35 E 21 33 29.74 1007 7 11 N/A
5:50 pm 17:50 Mostly Sunny 66 19 39 4 37 37 E 17 28 29.71 1006 7 11 N/A
6:20 pm 18:20 Mostly Sunny 66 19 37 3 35 35 E 16 26 29.71 1006 7 11 N/A
6:50 pm 18:50 Mostly Sunny 64 18 37 3 37 37 E 14 22 29.71 1006 7 11 N/A
7:20 pm 19:20 Mostly Sunny 64 18 39 4 40 40 E 13 20 29.71 1006 7 11 N/A
7:50 pm 19:50 Mostly Sunny 64 18 39 4 40 40 ESE 13 20 29.71 1006 7 11 N/A
8:20 pm 20:20 Mostly Sunny 63 17 41 5 45 45 ESE 14 22 29.71 1006 7 11 N/A
8:50 pm 20:50 Mostly Clear 63 17 43 6 49 49 ESE 15 24 29.71 1006 7 11 N/A

Powered by AerisWeather